Location: Paris
(48.8566°N, 2.3522°E)
Time: 11:04:09
(UTC+01:00)

ISS - Pass Details

Date: 26 February 2019
Orbit: 406 x 411 km, 51.6° (Epoch: 22 March)

Event Time Altitude Azimuth Distance (km) Brightness Sun altitude
Exits shadow 05:33:35 11° 163° (SSE) 1,378 -1.1 -21.4°
Maximum altitude 05:34:56 14° 137° (SE) 1,252 -1.0 -21.2°
Drops below altitude 10° 05:36:42 10° 104° (ESE) 1,466 -0.1 -20.9°
Sets 05:39:32 0° 77° (ENE) 2,332 1.6 -20.4°
